Philip, SD

1:54 AM MST on February 21, 2017 (GMT -0700)
Philip

Weather History for KPHP - December, 2012

Change the Weather History Date:

Thursday, December 27, 2012

  Actual Average Record
Temperature  
Mean Temperature 9 °F 21 °F  
Max Temperature 18 °F 34 °F 57 °F (1972)
Min Temperature 0 °F 9 °F -8 °F (1964)
Degree Days  
Heating Degree Days 56 44  
Month to date heating degree days 1093 1126  
Since 1 July heating degree days 2566 2761  
Cooling Degree Days 0 0  
Month to date cooling degree days 0 0  
Year to date cooling degree days 1202 818  
Moisture  
Dew Point 8 °F    
Average Humidity 84    
Maximum Humidity 100    
Minimum Humidity 67    
Precipitation  
Precipitation 0.07 in 0.01 in 0.17 in (1968)
Month to date precipitation 0.27 0.37  
Year to date precipitation 7.22 17.29  
Sea Level Pressure  
Sea Level Pressure 30.00 in    
Wind  
Wind Speed 8 mph (ENE)    
Max Wind Speed 13 mph    
Max Gust Speed 15 mph    
Visibility 5 miles    
Events Snow    
T = Trace of Precipitation, MM = Missing Value Source: NWS Daily Summary

Daily Weather History Graph

Daily Weather History Graph

Search for Another Location

Airport or City:

Trip Planner

Search our weather history database for the weather conditions in past years. The results will help you decide how hot, cold, wet, or windy it might be!

Date:

Astronomy

Dec. 27, 2012 Rise Set
Actual Time 7:20 AM MST 4:15 PM MST
Civil Twilight 6:47 AM MST 4:48 PM MST
Nautical Twilight 6:10 AM MST 5:24 PM MST
Astronomical Twilight 5:35 AM MST 5:59 PM MST
Moon 4:01 PM MST (12/27) 6:31 AM MST (12/27)
Length of Visible Light 10h 00m
Length of Day
8h 54m
Full, 100% of the Moon is Illuminated
Dec 27
Full
Dec 28
Full
Jan 4
Last Quarter
Jan 11
New
Jan 18
First Quarter

Hourly Weather History & Observations

Time (MST) Temp. Windchill Dew Point Humidity Pressure Visibility Wind Dir Wind Speed Gust Speed Precip Events Conditions
12:55 AM 16.0 °F 4.4 °F 8.1 °F 71% 29.98 in 10.0 mi ESE 9.2 mph - N/A   Overcast
1:55 AM 15.1 °F 2.5 °F 7.0 °F 70% 29.99 in 10.0 mi ESE 10.4 mph - N/A   Overcast
2:55 AM 15.1 °F 2.5 °F 7.0 °F 70% 29.99 in 10.0 mi ESE 10.4 mph - N/A   Overcast
3:55 AM 16.0 °F 5.3 °F 9.0 °F 74% 29.98 in 10.0 mi ESE 8.1 mph - N/A   Overcast
4:55 AM 16.0 °F 2.9 °F 10.0 °F 77% 29.98 in 7.0 mi ESE 11.5 mph - 0.00 in Snow Light Snow
5:55 AM 15.1 °F 5.2 °F 10.9 °F 84% 29.99 in 9.0 mi East 6.9 mph - 0.00 in   Overcast
6:32 AM 15.8 °F 6.1 °F 12.2 °F 86% 29.89 in 2.0 mi East 6.9 mph - 0.00 in Snow Light Snow
6:39 AM 15.8 °F 6.1 °F 12.2 °F 86% 29.89 in 1.2 mi East 6.9 mph - 0.00 in Snow Light Snow
6:55 AM 15.1 °F 4.2 °F 12.0 °F 88% 29.99 in 1.8 mi East 8.1 mph - 0.01 in Snow Light Snow
7:24 AM 15.8 °F 5.1 °F 12.2 °F 86% 29.89 in 0.8 mi East 8.1 mph - 0.02 in Snow Light Snow
7:46 AM 15.8 °F 4.2 °F 12.2 °F 86% 29.90 in 1.0 mi ESE 9.2 mph - 0.03 in Snow Light Snow
7:55 AM 15.1 °F 2.5 °F 12.0 °F 88% 30.00 in 1.2 mi ESE 10.4 mph - 0.03 in Snow Light Snow
8:37 AM 15.8 °F 4.2 °F 12.2 °F 86% 29.92 in 2.5 mi SE 9.2 mph - 0.01 in Snow Light Snow
8:55 AM 15.1 °F 4.2 °F 10.9 °F 84% 30.02 in 3.0 mi ESE 8.1 mph - 0.01 in Snow Light Snow
9:26 AM 15.8 °F 4.2 °F 12.2 °F 86% 29.94 in 2.5 mi SE 9.2 mph - 0.01 in Snow Light Snow
9:51 AM 15.8 °F 6.1 °F 10.4 °F 79% 29.94 in 3.0 mi SE 6.9 mph - 0.01 in Snow Light Snow
9:55 AM 17.1 °F 5.8 °F 12.0 °F 81% 30.04 in 3.0 mi SE 9.2 mph - 0.01 in Snow Light Snow
10:41 AM 15.8 °F 4.2 °F 10.4 °F 79% 29.93 in 1.8 mi ESE 9.2 mph - 0.00 in Snow Light Snow
10:55 AM 17.1 °F 7.6 °F 12.0 °F 81% 30.02 in 1.8 mi East 6.9 mph - 0.00 in Snow Light Snow
11:12 AM 17.6 °F 9.3 °F 10.4 °F 73% 29.92 in 3.0 mi ESE 5.8 mph - 0.00 in Snow Light Snow
11:29 AM 17.6 °F 8.2 °F 10.4 °F 73% 29.92 in 5.0 mi East 6.9 mph - 0.00 in Snow Light Snow
11:46 AM 17.6 °F 8.2 °F 10.4 °F 73% 29.92 in 6.0 mi East 6.9 mph - 0.00 in Snow Light Snow
11:55 AM 17.1 °F 8.7 °F 10.9 °F 77% 30.01 in 3.0 mi East 5.8 mph - 0.00 in Snow Light Snow
12:55 PM 18.0 °F 12.7 °F 10.9 °F 74% 30.00 in 10.0 mi ENE 3.5 mph - 0.00 in   Overcast
1:55 PM 17.1 °F 8.7 °F 12.0 °F 81% 30.01 in 5.0 mi ENE 5.8 mph - 0.00 in Snow Light Snow
2:48 PM 17.6 °F 9.3 °F 10.4 °F 73% 29.93 in 2.5 mi NE 5.8 mph - 0.00 in Snow Light Snow
2:55 PM 17.1 °F 7.6 °F 12.0 °F 81% 30.03 in 3.0 mi NE 6.9 mph - 0.00 in Snow Light Snow
3:55 PM 15.1 °F 5.2 °F 10.9 °F 84% 30.05 in 2.5 mi NE 6.9 mph - 0.01 in Snow Light Snow
4:07 PM 15.8 °F 8.6 °F 10.4 °F 79% 29.95 in 3.0 mi NE 4.6 mph - 0.00 in Snow Light Snow
4:15 PM 15.8 °F 8.6 °F 10.4 °F 79% 29.95 in 4.0 mi NNE 4.6 mph - 0.00 in Snow Light Snow
4:55 PM 14.0 °F 5.1 °F 10.0 °F 84% 30.08 in 6.0 mi NNE 5.8 mph - 0.00 in Snow Light Snow
5:53 PM 10.4 °F -0.4 °F 8.6 °F 92% 29.98 in 5.0 mi North 6.9 mph - 0.00 in Snow Light Snow
5:55 PM 10.9 °F 0.2 °F 8.1 °F 88% 30.09 in 5.0 mi North 6.9 mph - 0.00 in Snow Light Snow
6:55 PM 10.0 °F -0.9 °F 7.0 °F 87% 30.11 in 5.0 mi North 6.9 mph - 0.00 in Snow Light Snow
7:13 PM 10.4 °F -0.4 °F 6.8 °F 85% 30.00 in 5.0 mi North 6.9 mph - 0.00 in Snow Light Snow
7:55 PM 8.1 °F -3.2 °F 5.0 °F 87% 30.12 in 3.0 mi North 6.9 mph - 0.00 in Snow Light Snow
8:32 PM 3.2 °F -7.8 °F -0.4 °F 85% 30.01 in 10.0 mi WNW 5.8 mph - 0.00 in   Partly Cloudy
8:55 PM 1.9 °F -9.2 °F -0.9 °F 88% 30.14 in 10.0 mi WNW 5.8 mph - 0.00 in   Clear
9:55 PM 1.0 °F -12.9 °F -0.9 °F 91% 30.15 in 10.0 mi West 8.1 mph - N/A   Partly Cloudy
10:05 PM 1.4 °F -12.5 °F -0.4 °F 92% 30.03 in 10.0 mi WNW 8.1 mph - N/A   Scattered Clouds
10:17 PM 1.4 °F -11.3 °F -0.4 °F 92% 30.03 in 10.0 mi WNW 6.9 mph - N/A   Mostly Cloudy
10:37 PM -0.4 °F -13.4 °F -2.2 °F 92% 30.03 in 1.8 mi West 6.9 mph - N/A   Mostly Cloudy
10:55 PM -0.0 °F -13.0 °F -0.9 °F 96% 30.16 in 1.0 mi West 6.9 mph - N/A   Mist
11:03 PM -0.4 °F -12.0 °F -2.2 °F 92% 30.03 in 3.0 mi West 5.8 mph - N/A   Overcast
11:55 PM 1.9 °F -7.6 °F -0.9 °F 88% 30.15 in 10.0 mi West 4.6 mph - N/A   Overcast